| time (UTC) | temp F | wind direction | speed MPH | gust MPH | rain 1hr in | rain 24hr in | rain mn in | humidity % | barometer mb |
| 20260505022024 | 61 | 196 | 5.0 | 13.0 | 0.00 | 0.00 | 0.00 | 52 | 1009.8 |
| 20260505021503 | 61 | 187 | 4.0 | 14.0 | 0.00 | 0.00 | 0.00 | 52 | 1009.8 |
| 20260505021003 | 61 | 189 | 5.0 | 14.0 | 0.00 | 0.00 | 0.00 | 52 | 1009.8 |
| 20260505020504 | 62 | 194 | 5.0 | 15.0 | 0.00 | 0.00 | 0.00 | 51 | 1009.8 |
| 20260505020003 | 62 | 190 | 4.0 | 15.0 | 0.00 | 0.00 | 0.00 | 52 | 1009.4 |
| 20260505015503 | 62 | 189 | 4.0 | 15.0 | 0.00 | 0.00 | 0.00 | 51 | 1009.4 |
| 20260505015024 | 62 | 190 | 5.0 | 14.0 | 0.00 | 0.00 | 0.00 | 51 | 1009.4 |
| 20260505014524 | 62 | 190 | 4.0 | 14.0 | 0.00 | 0.00 | 0.00 | 50 | 1009.4 |
| 20260505014003 | 62 | 197 | 4.0 | 10.0 | 0.00 | 0.00 | 0.00 | 51 | 1009.4 |
| 20260505013504 | 63 | 199 | 4.0 | 10.0 | 0.00 | 0.00 | 0.00 | 50 | 1009.4 |
| 20260505013003 | 63 | 193 | 5.0 | 18.0 | 0.00 | 0.00 | 0.00 | 49 | 1009.4 |
| 20260505012503 | 63 | 189 | 5.0 | 18.0 | 0.00 | 0.00 | 0.00 | 49 | 1009.1 |
| 20260505012003 | 63 | 189 | 4.0 | 14.0 | 0.00 | 0.00 | 0.00 | 49 | 1009.1 |
| 20260505011503 | 63 | 195 | 4.0 | 14.0 | 0.00 | 0.00 | 0.00 | 49 | 1009.1 |
| 20260505011003 | 63 | 199 | 5.0 | 21.0 | 0.00 | 0.00 | 0.00 | 48 | 1009.1 |
| 20260505010503 | 64 | 197 | 5.0 | 21.0 | 0.00 | 0.00 | 0.00 | 47 | 1008.8 |
| 20260505010004 | 64 | 194 | 5.0 | 17.0 | 0.00 | 0.00 | 0.00 | 47 | 1008.4 |
| 20260505005503 | 64 | 195 | 5.0 | 17.0 | 0.00 | 0.00 | 0.00 | 47 | 1008.4 |
| 20260505005003 | 64 | 195 | 5.0 | 16.0 | 0.00 | 0.00 | 0.00 | 46 | 1008.4 |
| 20260505004524 | 65 | 186 | 5.0 | 13.0 | 0.00 | 0.00 | 0.00 | 46 | 1008.8 |
| 20260505004003 | 65 | 191 | 5.0 | 17.0 | 0.00 | 0.00 | 0.00 | 45 | 1008.1 |
| 20260505003524 | 65 | 192 | 5.0 | 17.0 | 0.00 | 0.00 | 0.00 | 45 | 1008.1 |
| 20260505003024 | 66 | 193 | 6.0 | 15.0 | 0.00 | 0.00 | 0.00 | 44 | 1007.7 |
| 20260505002503 | 66 | 198 | 6.0 | 17.0 | 0.00 | 0.00 | 0.00 | 43 | 1007.7 |
| 20260505002003 | 66 | 195 | 6.0 | 17.0 | 0.00 | 0.00 | 0.00 | 42 | 1007.4 |
| 20260505001503 | 67 | 195 | 4.0 | 15.0 | 0.00 | 0.00 | 0.00 | 40 | 1007.4 |
| 20260505001003 | 67 | 202 | 2.0 | 6.0 | 0.00 | 0.00 | 0.00 | 38 | 1007.1 |
| 20260505000524 | 67 | 212 | 2.0 | 6.0 | 0.00 | 0.00 | 0.00 | 37 | 1007.1 |
| 20260505000003 | 68 | 198 | 2.0 | 5.0 | 0.00 | 0.00 | 0.00 | 37 | 1006.7 |
| 20260504235503 | 68 | 199 | 2.0 | 9.0 | 0.00 | 0.00 | 0.00 | 36 | 1006.7 |
| 20260504235003 | 68 | 203 | 3.0 | 9.0 | 0.00 | 0.00 | 0.00 | 36 | 1006.7 |
| 20260504234503 | 69 | 214 | 4.0 | 11.0 | 0.00 | 0.00 | 0.00 | 35 | 1006.7 |
| 20260504234024 | 69 | 224 | 4.0 | 11.0 | 0.00 | 0.00 | 0.00 | 35 | 1006.7 |
| 20260504233524 | 69 | 226 | 3.0 | 11.0 | 0.00 | 0.00 | 0.00 | 35 | 1006.7 |
| 20260504233003 | 69 | 214 | 3.0 | 17.0 | 0.00 | 0.00 | 0.00 | 35 | 1006.7 |
| 20260504232504 | 70 | 209 | 3.0 | 17.0 | 0.00 | 0.00 | 0.00 | 35 | 1006.4 |
| 20260504232003 | 70 | 222 | 3.0 | 12.0 | 0.00 | 0.00 | 0.00 | 34 | 1006.7 |
| 20260504231503 | 71 | 226 | 3.0 | 13.0 | 0.00 | 0.00 | 0.00 | 33 | 1006.4 |
| 20260504231003 | 70 | 216 | 3.0 | 13.0 | 0.00 | 0.00 | 0.00 | 34 | 1006.0 |
| 20260504230503 | 70 | 226 | 4.0 | 13.0 | 0.00 | 0.00 | 0.00 | 34 | 1006.4 |
| 20260504230003 | 71 | 226 | 6.0 | 13.0 | 0.00 | 0.00 | 0.00 | 34 | 1006.4 |
| 20260504225504 | 71 | 221 | 5.0 | 16.0 | 0.00 | 0.00 | 0.00 | 33 | 1006.0 |
| 20260504225003 | 71 | 221 | 4.0 | 16.0 | 0.00 | 0.00 | 0.00 | 33 | 1006.0 |
| 20260504224503 | 71 | 216 | 4.0 | 16.0 | 0.00 | 0.00 | 0.00 | 33 | 1006.0 |
| 20260504224004 | 71 | 207 | 4.0 | 13.0 | 0.00 | 0.00 | 0.00 | 33 | 1006.0 |
| 20260504223503 | 71 | 216 | 3.0 | 14.0 | 0.00 | 0.00 | 0.00 | 33 | 1006.0 |
| 20260504223003 | 70 | 223 | 3.0 | 14.0 | 0.00 | 0.00 | 0.00 | 33 | 1006.0 |
| 20260504222524 | 70 | 238 | 3.0 | 14.0 | 0.00 | 0.00 | 0.00 | 34 | 1006.0 |
| 20260504222003 | 71 | 233 | 4.0 | 16.0 | 0.00 | 0.00 | 0.00 | 33 | 1006.0 |
| 20260504221503 | 71 | 221 | 5.0 | 21.0 | 0.00 | 0.00 | 0.00 | 32 | 1006.0 |
| 20260504221024 | 72 | 211 | 7.0 | 21.0 | 0.00 | 0.00 | 0.00 | 31 | 1006.0 |
| 20260504220503 | 72 | 211 | 6.0 | 21.0 | 0.00 | 0.00 | 0.00 | 31 | 1006.0 |
| 20260504220003 | 72 | 214 | 5.0 | 23.0 | 0.00 | 0.00 | 0.00 | 32 | 1006.0 |
| 20260504215503 | 72 | 216 | 6.0 | 23.0 | 0.00 | 0.00 | 0.00 | 32 | 1006.0 |
| 20260504215003 | 72 | 220 | 5.0 | 13.0 | 0.00 | 0.00 | 0.00 | 31 | 1006.0 |
| 20260504214503 | 73 | 221 | 5.0 | 20.0 | 0.00 | 0.00 | 0.00 | 32 | 1006.0 |
| 20260504214024 | 72 | 227 | 6.0 | 20.0 | 0.00 | 0.00 | 0.00 | 31 | 1006.0 |
| 20260504213503 | 72 | 229 | 6.0 | 25.0 | 0.00 | 0.00 | 0.00 | 32 | 1006.0 |
| 20260504213024 | 72 | 229 | 6.0 | 25.0 | 0.00 | 0.00 | 0.00 | 31 | 1006.0 |
| 20260504212503 | 72 | 236 | 5.0 | 21.0 | 0.00 | 0.00 | 0.00 | 32 | 1006.0 |
| 20260504212003 | 72 | 232 | 5.0 | 19.0 | 0.00 | 0.00 | 0.00 | 32 | 1006.0 |
| 20260504211524 | 73 | 224 | 5.0 | 19.0 | 0.00 | 0.00 | 0.00 | 31 | 1006.0 |
| 20260504211003 | 73 | 210 | 6.0 | 17.0 | 0.00 | 0.00 | 0.00 | 31 | 1006.0 |
| 20260504210503 | 71 | 213 | 6.0 | 20.0 | 0.00 | 0.00 | 0.00 | 32 | 1006.0 |
| 20260504210003 | 71 | 222 | 6.0 | 20.0 | 0.00 | 0.00 | 0.00 | 32 | 1006.0 |
| 20260504205503 | 71 | 213 | 6.0 | 20.0 | 0.00 | 0.00 | 0.00 | 32 | 1006.0 |
| 20260504205003 | 71 | 207 | 6.0 | 20.0 | 0.00 | 0.00 | 0.00 | 31 | 1006.0 |
| 20260504204524 | 71 | 212 | 6.0 | 18.0 | 0.00 | 0.00 | 0.00 | 31 | 1006.0 |
| 20260504204004 | 71 | 214 | 6.0 | 19.0 | 0.00 | 0.00 | 0.00 | 31 | 1006.0 |
| 20260504203503 | 71 | 209 | 7.0 | 23.0 | 0.00 | 0.00 | 0.00 | 31 | 1006.0 |
| 20260504203003 | 72 | 220 | 6.0 | 23.0 | 0.00 | 0.00 | 0.00 | 31 | 1006.0 |
| 20260504202503 | 72 | 233 | 4.0 | 14.0 | 0.00 | 0.00 | 0.00 | 31 | 1006.0 |
| 20260504202003 | 71 | 226 | 4.0 | 14.0 | 0.00 | 0.00 | 0.00 | 31 | 1006.0 |
| 20260504201503 | 71 | 229 | 5.0 | 18.0 | 0.00 | 0.00 | 0.00 | 31 | 1006.0 |
| 20260504201003 | 72 | 223 | 6.0 | 18.0 | 0.00 | 0.00 | 0.00 | 30 | 1006.0 |
| 20260504200503 | 72 | 218 | 6.0 | 21.0 | 0.00 | 0.00 | 0.00 | 29 | 1006.0 |
| 20260504200003 | 72 | 245 | 8.0 | 21.0 | 0.00 | 0.00 | 0.00 | 30 | 1006.0 |
| 20260504195503 | 71 | 258 | 7.0 | 16.0 | 0.00 | 0.00 | 0.00 | 32 | 1006.0 |
| 20260504195003 | 72 | 235 | 4.0 | 13.0 | 0.00 | 0.00 | 0.00 | 31 | 1005.7 |
| 20260504194503 | 71 | 216 | 5.0 | 15.0 | 0.00 | 0.00 | 0.00 | 31 | 1006.0 |
| 20260504194003 | 71 | 227 | 5.0 | 15.0 | 0.00 | 0.00 | 0.00 | 31 | 1006.0 |
| 20260504193503 | 71 | 235 | 5.0 | 14.0 | 0.00 | 0.00 | 0.00 | 31 | 1006.0 |
| 20260504193003 | 72 | 215 | 6.0 | 23.0 | 0.00 | 0.00 | 0.00 | 30 | 1006.0 |
| 20260504192524 | 72 | 221 | 7.0 | 23.0 | 0.00 | 0.00 | 0.00 | 30 | 1006.0 |
| 20260504192003 | 70 | 226 | 6.0 | 22.0 | 0.00 | 0.00 | 0.00 | 31 | 1006.0 |
| 20260504191503 | 72 | 211 | 6.0 | 23.0 | 0.00 | 0.00 | 0.00 | 29 | 1006.0 |
| 20260504191003 | 70 | 217 | 8.0 | 29.0 | 0.00 | 0.00 | 0.00 | 30 | 1006.0 |
| 20260504190524 | 71 | 230 | 8.0 | 29.0 | 0.00 | 0.00 | 0.00 | 30 | 1006.4 |
| 20260504190003 | 71 | 213 | 8.0 | 27.0 | 0.00 | 0.00 | 0.00 | 31 | 1006.4 |
| 20260504185503 | 71 | 200 | 8.0 | 28.0 | 0.00 | 0.00 | 0.00 | 29 | 1006.4 |
| 20260504185003 | 71 | 199 | 9.0 | 28.0 | 0.00 | 0.00 | 0.00 | 30 | 1006.4 |
| 20260504184503 | 70 | 204 | 7.0 | 28.0 | 0.00 | 0.00 | 0.00 | 30 | 1006.7 |
| 20260504184003 | 71 | 211 | 7.0 | 27.0 | 0.00 | 0.00 | 0.00 | 30 | 1006.7 |
| 20260504183503 | 71 | 214 | 8.0 | 27.0 | 0.00 | 0.00 | 0.00 | 31 | 1006.4 |
| 20260504183003 | 71 | 215 | 8.0 | 21.0 | 0.00 | 0.00 | 0.00 | 31 | 1006.7 |
| 20260504182503 | 70 | 222 | 8.0 | 20.0 | 0.00 | 0.00 | 0.00 | 30 | 1006.7 |
| 20260504182003 | 71 | 246 | 6.0 | 15.0 | 0.00 | 0.00 | 0.00 | 31 | 1006.7 |
| 20260504181524 | 70 | 240 | 6.0 | 18.0 | 0.00 | 0.00 | 0.00 | 31 | 1006.4 |
| 20260504181003 | 70 | 233 | 7.0 | 21.0 | 0.00 | 0.00 | 0.00 | 30 | 1006.7 |
| 20260504180503 | 68 | 228 | 7.0 | 23.0 | 0.00 | 0.00 | 0.00 | 32 | 1006.7 |
| 20260504180003 | 69 | 245 | 8.0 | 23.0 | 0.00 | 0.00 | 0.00 | 31 | 1006.7 |
| 20260504175503 | 69 | 259 | 8.0 | 21.0 | 0.00 | 0.00 | 0.00 | 31 | 1006.7 |
| 20260504175004 | 68 | 241 | 8.0 | 30.0 | 0.00 | 0.00 | 0.00 | 33 | 1006.7 |
| 20260504174503 | 69 | 233 | 8.0 | 30.0 | 0.00 | 0.00 | 0.00 | 31 | 1006.7 |
| 20260504174003 | 70 | 232 | 7.0 | 23.0 | 0.00 | 0.00 | 0.00 | 32 | 1006.7 |
| 20260504173503 | 69 | 243 | 7.0 | 23.0 | 0.00 | 0.00 | 0.00 | 31 | 1006.7 |
| 20260504173003 | 68 | 254 | 7.0 | 20.0 | 0.00 | 0.00 | 0.00 | 32 | 1007.1 |
| 20260504172503 | 68 | 251 | 7.0 | 20.0 | 0.00 | 0.00 | 0.00 | 32 | 1006.7 |
| 20260504172003 | 68 | 250 | 7.0 | 27.0 | 0.00 | 0.00 | 0.00 | 33 | 1007.1 |
| 20260504171503 | 68 | 235 | 8.0 | 27.0 | 0.00 | 0.00 | 0.00 | 31 | 1007.1 |
| 20260504171003 | 68 | 231 | 8.0 | 27.0 | 0.00 | 0.00 | 0.00 | 32 | 1006.7 |
| 20260504170524 | 68 | 221 | 8.0 | 32.0 | 0.00 | 0.00 | 0.00 | 34 | 1006.7 |
| 20260504151004 | 64 | 234 | 7.0 | 21.0 | 0.00 | 0.00 | 0.00 | 39 | 1008.1 |
| 20260504150503 | 64 | 229 | 6.0 | 20.0 | 0.00 | 0.00 | 0.00 | 38 | 1008.1 |
| 20260504141024 | 61 | 249 | 6.0 | 19.0 | 0.00 | 0.00 | 0.00 | 42 | 1008.8 |
| 20260504140503 | 62 | 249 | 6.0 | 19.0 | 0.00 | 0.00 | 0.00 | 41 | 1008.8 |
| 20260504130503 | 58 | 225 | 5.0 | 15.0 | 0.00 | 0.00 | 0.00 | 45 | 1009.4 |
| 20260504110503 | 48 | 177 | 1.0 | 5.0 | 0.00 | 0.00 | 0.00 | 59 | 1010.5 |
| 20260504100503 | 46 | 188 | 3.0 | 9.0 | 0.00 | 0.00 | 0.00 | 59 | 1010.1 |
| 20260504081503 | 45 | 169 | 2.0 | 6.0 | 0.00 | 0.00 | 0.00 | 58 | 1009.8 |
| 20260504081004 | 45 | 177 | 2.0 | 6.0 | 0.00 | 0.00 | 0.00 | 58 | 1010.1 |
| 20260504080504 | 45 | 186 | 2.0 | 6.0 | 0.00 | 0.00 | 0.00 | 58 | 1010.1 |
| 20260504050524 | 41 | 160 | 2.0 | 6.0 | 0.00 | 0.01 | 0.00 | 65 | 1010.1 |
| 20260504050004 | 41 | 162 | 3.0 | 6.0 | 0.00 | 0.01 | 0.00 | 64 | 1010.1 |
| 20260504045503 | 42 | 171 | 3.0 | 6.0 | 0.00 | 0.01 | 0.00 | 63 | 1009.8 |
| 20260504045003 | 42 | 169 | 3.0 | 6.0 | 0.00 | 0.01 | 0.00 | 61 | 1010.1 |
| 20260504044504 | 42 | 165 | 3.0 | 6.0 | 0.00 | 0.01 | 0.00 | 61 | 1010.1 |
| 20260504044003 | 42 | 165 | 3.0 | 6.0 | 0.00 | 0.01 | 0.00 | 62 | 1010.1 |
| 20260504043503 | 42 | 169 | 3.0 | 6.0 | 0.00 | 0.01 | 0.00 | 62 | 1010.1 |
| 20260504043003 | 42 | 179 | 3.0 | 6.0 | 0.00 | 0.01 | 0.00 | 61 | 1010.1 |
| 20260504042504 | 42 | 169 | 3.0 | 6.0 | 0.00 | 0.01 | 0.00 | 62 | 1009.8 |
| 20260504042003 | 42 | 168 | 3.0 | 6.0 | 0.00 | 0.01 | 0.00 | 62 | 1009.8 |
| 20260504041504 | 42 | 176 | 3.0 | 6.0 | 0.00 | 0.01 | 0.00 | 63 | 1009.8 |
| 20260504041003 | 42 | 169 | 3.0 | 7.0 | 0.00 | 0.01 | 0.00 | 64 | 1009.8 |
| 20260504040503 | 42 | 166 | 3.0 | 7.0 | 0.00 | 0.01 | 0.00 | 62 | 1009.8 |
| 20260504040004 | 42 | 165 | 3.0 | 6.0 | 0.00 | 0.01 | 0.00 | 62 | 1009.8 |
| 20260504035503 | 42 | 162 | 2.0 | 5.0 | 0.00 | 0.01 | 0.01 | 63 | 1009.4 |
| 20260504035003 | 41 | 166 | 2.0 | 5.0 | 0.00 | 0.01 | 0.01 | 66 | 1009.8 |
| 20260504034503 | 41 | 155 | 2.0 | 5.0 | 0.00 | 0.01 | 0.01 | 66 | 1009.8 |
| 20260504034003 | 41 | 147 | 2.0 | 4.0 | 0.00 | 0.01 | 0.01 | 64 | 1009.4 |
| 20260504033504 | 42 | 157 | 2.0 | 4.0 | 0.00 | 0.01 | 0.01 | 64 | 1009.4 |
| 20260504033003 | 42 | 168 | 3.0 | 4.0 | 0.00 | 0.01 | 0.01 | 64 | 1009.8 |
| 20260504032503 | 42 | 170 | 2.0 | 4.0 | 0.00 | 0.01 | 0.01 | 61 | 1009.4 |
| 20260504032003 | 42 | 163 | 3.0 | 5.0 | 0.00 | 0.01 | 0.01 | 61 | 1009.8 |
| 20260504031503 | 43 | 171 | 3.0 | 5.0 | 0.00 | 0.01 | 0.01 | 62 | 1009.4 |
| 20260504031003 | 44 | 172 | 2.0 | 5.0 | 0.00 | 0.01 | 0.01 | 59 | 1009.4 |
| 20260504030503 | 43 | 164 | 3.0 | 5.0 | 0.00 | 0.01 | 0.01 | 60 | 1009.4 |
| 20260504030025 | 43 | 161 | 2.0 | 4.0 | 0.00 | 0.01 | 0.01 | 60 | 1009.4 |
| 20260504025503 | 44 | 162 | 2.0 | 5.0 | 0.00 | 0.01 | 0.01 | 59 | 1009.4 |
| 20260504025003 | 44 | 173 | 3.0 | 6.0 | 0.00 | 0.01 | 0.01 | 58 | 1009.4 |
| 20260504024524 | 45 | 179 | 3.0 | 6.0 | 0.00 | 0.01 | 0.01 | 57 | 1009.4 |
| 20260504024003 | 45 | 183 | 3.0 | 6.0 | 0.00 | 0.01 | 0.01 | 57 | 1009.4 |
| 20260504023503 | 45 | 182 | 2.0 | 6.0 | 0.00 | 0.01 | 0.01 | 56 | 1009.4 |
| 20260504023003 | 45 | 176 | 3.0 | 6.0 | 0.00 | 0.01 | 0.01 | 55 | 1009.4 |
| 20260504022503 | 45 | 172 | 3.0 | 6.0 | 0.00 | 0.01 | 0.01 | 55 | 1009.4 |